Wind_Speed
32 32 34 34 34 35 35 34 34 34 34 30 24 19 16 14 13 13 13 14 14 14 13 13 12 11 11 11 11 11 10 11 11 12 12 13 13 13 14 15 15 14
32 32 34 36 37 37 36 34 31 32 34 32 25 20 16 14 13 12 13 13 14 14 14 13 12 11 11 11 11 11 11 11 11 12 12 12 13 14 14 15 14 13
33 31 31 35 38 39 38 35 30 29 31 29 25 21 17 14 13 12 12 12 13 14 14 13 11 10 10 11 11 11 11 11 11 12 12 12 13 14 14 14 13 12
30 30 30 31 34 38 39 37 33 32 33 28 23 21 17 14 13 12 11 11 13 14 13 12 11 10 10 10 11 11 11 11 11 11 12 12 13 14 14 13 12 11
28 28 28 28 28 30 34 35 33 32 31 25 21 18 15 13 11 10 10 11 13 13 12 11 10 10 10 11 11 11 11 11 11 11 12 12 12 13 13 12 11 11
23 20 19 20 20 22 27 29 28 24 22 21 18 15 12 10 10 9 10 12 13 12 11 10 10 10 10 11 12 12 11 11 11 11 12 12 12 12 12 12 11 11
9 8 10 15 17 19 19 18 18 17 17 16 14 11 10 9 9 8 10 12 13 11 10 10 10 11 11 12 12 11 11 11 11 11 12 11 11 12 12 11 12 12
3 2 7 11 12 12 12 11 13 12 11 11 10 9 8 8 8 8 10 12 11 10 10 10 11 11 12 12 12 11 11 11 11 11 11 11 11 11 11 11 11 11
3 1 3 8 10 12 12 10 9 8 8 8 8 6 6 7 7 9 10 11 10 9 10 11 11 12 11 11 11 11 12 11 11 11 10 10 10 10 10 11 11 11
4 2 3 7 10 13 12 8 8 9 7 6 6 5 7 8 9 9 10 9 9 10 10 11 11 11 11 11 11 11 11 10 10 10 10 9 9 9 10 11 11 10
4 3 5 5 3 6 7 7 8 7 5 5 5 7 8 9 9 9 9 9 9 10 11 11 11 11 10 10 11 11 11 10 9 9 9 8 8 9 10 10 10 10
2 3 6 5 1 3 6 7 7 5 6 7 7 8 9 9 9 9 9 9 9 10 11 11 11 11 10 10 10 11 10 9 9 9 8 7 7 8 10 10 10 9
1 1 2 3 5 6 7 7 7 7 8 8 8 9 9 8 8 8 9 10 10 11 11 10 10 10 9 9 10 10 10 9 8 8 7 6 7 8 9 9 9 9
2 2 3 6 6 5 5 6 6 7 7 7 8 8 8 8 8 9 10 11 11 11 10 10 9 8 8 8 9 10 9 8 7 6 6 6 7 8 9 9 9 9
4 5 6 7 6 5 5 6 6 7 7 7 8 8 9 9 9 10 11 10 10 10 9 9 8 8 8 8 9 10 9 8 6 5 5 6 7 9 8 8 9 9
4 4 4 5 5 5 5 5 6 7 7 7 8 8 9 9 9 9 9 9 9 9 8 8 8 8 8 7 8 9 8 6 5 5 5 6 8 8 7 8 9 10
4 3 3 2 2 2 3 4 5 6 7 7 7 8 8 8 8 8 8 8 8 8 9 9 9 8 8 7 7 6 6 5 5 5 5 6 7 7 6 7 9 9
6 5 4 3 2 3 3 4 5 6 6 7 7 7 7 7 7 7 8 8 9 9 10 10 9 9 8 7 6 4 4 5 5 5 6 6 6 6 6 8 9 9
7 6 5 5 4 4 4 5 5 6 6 6 6 6 7 7 7 8 9 9 10 10 10 9 9 8 7 7 5 4 4 5 5 6 7 7 6 5 6 7 8 8
7 7 6 5 5 5 5 5 5 5 6 6 6 6 7 8 8 8 9 9 9 9 8 7 7 7 7 6 4 4 4 5 5 6 7 7 6 5 6 6 7 8
8 8 7 6 5 5 5 5 6 6 7 7 7 7 8 8 8 8 8 8 8 7 7 6 6 6 6 5 4 4 5 5 6 7 8 7 7 6 6 7 7 7
8 8 7 6 6 5 6 6 7 7 7 8 7 7 7 7 8 8 8 7 7 7 6 5 5 6 5 5 5 5 5 6 7 7 8 8 8 8 7 7 8 8
8 8 7 7 7 7 7 8 8 8 8 8 8 7 8 8 8 8 8 8 7 7 6 6 5 5 5 5 5 6 6 7 7 8 9 9 9 9 9 9 9 10
8 8 8 8 8 9 9 9 9 9 9 9 9 9 9 8 8 9 9 9 9 8 7 7 6 6 6 6 6 7 7 8 9 10 10 11 11 11 10 10 10 11
8 9 9 9 10 10 10 10 10 9 9 9 9 9 9 9 9 9 9 10 10 9 9 8 8 7 7 7 7 8 8 9 10 11 11 12 12 12 12 12 12 12
9 9 10 10 11 11 11 10 10 10 9 9 9 9 9 9 9 9 9 10 10 11 10 10 10 10 9 9 9 9 9 10 11 11 12 13 13 13 13 13 13 13
Wind_Direction
269 268 265 263 261 262 270 274 270 269 273 275 275 269 266 270 267 268 277 282 286 288 286 284 283 284 284 284 286 287 288 290 291 294 296 299 303 306 309 313 314 314
260 267 264 260 261 264 269 275 272 269 271 271 269 265 263 265 262 263 271 278 284 286 284 282 281 282 283 283 284 285 286 289 290 292 296 299 303 306 309 312 312 314
251 263 269 263 261 262 265 271 272 270 272 270 262 258 259 262 258 257 266 278 283 283 281 281 281 282 283 282 282 283 285 287 289 291 295 298 301 305 308 310 311 316
250 258 269 269 266 265 266 267 265 267 271 266 256 253 257 261 259 257 267 278 281 281 279 278 282 284 283 282 280 282 285 287 291 292 293 295 299 304 307 307 310 320
257 261 267 273 270 265 265 265 266 268 266 257 250 252 257 263 264 264 274 281 281 279 279 279 283 286 285 283 281 283 286 289 293 293 291 294 299 303 304 305 312 322
260 263 264 270 266 259 266 268 265 261 250 242 246 257 268 270 266 270 279 284 282 279 279 281 286 288 286 285 284 285 289 290 290 289 291 297 301 302 303 306 316 324
254 254 256 260 257 256 268 266 251 240 233 238 255 271 279 271 268 280 285 285 284 280 282 287 290 292 289 288 289 291 292 289 287 289 293 299 303 303 305 309 319 326
156 255 260 262 263 264 276 264 246 246 245 259 282 286 283 278 282 293 288 285 284 281 288 294 295 296 293 292 295 295 292 288 287 291 295 300 303 303 305 310 319 326
141 46 245 256 263 264 273 268 266 283 285 294 305 298 295 299 299 296 287 284 282 284 294 298 298 298 296 296 298 294 291 289 290 294 297 301 303 302 304 311 319 325
162 135 209 245 247 241 248 267 297 312 314 318 319 315 317 312 304 297 289 286 286 292 300 301 301 301 298 298 296 291 290 291 293 296 298 300 300 299 306 314 321 324
150 181 228 229 221 234 253 293 312 317 329 334 332 330 325 316 309 301 293 291 294 299 303 304 304 302 299 297 292 290 292 294 295 295 296 297 297 300 308 317 322 324
126 208 221 215 285 313 307 315 321 333 344 345 343 335 323 316 311 300 295 298 300 304 307 307 305 300 297 295 293 293 294 294 294 294 294 297 296 303 312 319 323 324
51 173 205 288 324 327 324 324 330 340 344 345 339 326 318 316 308 300 303 305 307 310 309 305 300 296 295 296 296 296 295 296 298 295 297 299 300 308 316 319 323 325
353 320 313 324 327 327 326 327 332 338 341 339 329 321 320 316 308 307 311 311 311 311 306 301 297 295 299 300 301 300 300 300 299 294 294 297 303 313 317 320 325 328
350 334 327 333 339 340 336 333 335 339 338 331 323 319 316 310 308 312 312 312 311 307 303 301 299 300 304 307 307 304 301 299 297 295 297 302 310 316 319 323 327 328
358 349 338 336 336 334 330 329 333 334 327 320 314 310 308 307 312 314 312 312 309 305 304 302 301 306 310 311 307 299 295 296 295 295 301 307 312 314 319 324 325 326
51 51 43 26 2 337 325 326 329 320 312 310 308 309 312 317 319 317 315 314 309 306 306 304 304 308 308 307 301 292 291 291 287 289 298 304 307 311 319 324 326 330
52 54 52 45 24 358 345 338 330 316 311 312 315 319 323 322 320 318 317 315 312 310 307 304 304 303 303 304 302 292 283 278 279 289 296 298 303 312 321 327 332 337
42 42 38 30 18 4 354 340 326 316 313 314 318 321 320 318 318 319 318 316 313 308 303 300 299 298 301 305 302 285 266 266 278 288 292 297 306 313 319 327 336 340
40 37 31 25 15 1 346 329 319 315 312 313 318 319 318 318 317 317 317 316 311 306 302 300 299 300 304 306 297 274 259 262 275 283 291 301 308 311 315 322 332 335
39 35 30 25 15 359 339 326 320 317 313 315 317 318 318 319 320 320 321 320 317 314 312 310 309 307 307 307 294 272 261 264 275 285 293 301 306 307 308 312 319 323
34 31 26 19 9 358 348 339 332 326 322 322 324 326 330 333 331 329 329 328 326 323 320 318 315 309 305 301 287 271 264 269 276 286 292 298 304 304 301 303 307 307
32 28 24 17 11 7 4 358 351 347 345 345 346 349 351 349 343 336 333 333 331 326 322 318 311 302 296 291 282 272 270 273 277 284 290 294 299 300 299 299 298 297
30 26 23 18 14 11 9 6 3 1 0 358 358 358 357 354 349 342 338 336 332 327 321 315 306 299 294 290 285 280 279 281 283 285 289 292 294 295 296 296 294 294
29 26 23 19 16 13 10 7 5 3 3 1 359 358 356 354 351 347 343 340 336 331 325 317 310 304 300 295 292 289 287 288 287 288 291 292 292 293 293 293 293 293
28 23 19 16 14 11 7 4 3 2 3 3 2 0 359 356 354 353 351 348 343 339 334 327 320 314 310 305 300 296 292 290 289 290 292 292 293 293 293 292 292 292
Height
5862 5861 5862 5862 5862 5862 5862 5862 5862 5861 5861 5863 5863 5862 5861 5861 5861 5861 5860 5859 5859 5858 5858 5858 5857 5857 5856 5856 5856 5856 5855 5855 5855 5855 5855 5855 5854 5853 5853 5852 5851 5850
5858 5858 5858 5858 5859 5858 5858 5858 5858 5858 5858 5859 5860 5859 5858 5859 5859 5859 5858 5858 5857 5857 5856 5856 5856 5855 5855 5855 5854 5854 5854 5854 5853 5853 5853 5853 5853 5852 5851 5850 5850 5849
5853 5854 5854 5854 5854 5854 5854 5855 5855 5855 5855 5856 5856 5855 5856 5857 5857 5856 5856 5856 5855 5855 5855 5855 5854 5854 5853 5853 5853 5853 5853 5852 5852 5852 5852 5852 5851 5851 5850 5849 5849 5847
5848 5849 5849 5850 5850 5849 5850 5851 5852 5852 5852 5853 5853 5852 5853 5855 5854 5854 5853 5853 5853 5853 5853 5853 5853 5852 5852 5851 5851 5851 5851 5851 5851 5851 5851 5851 5850 5849 5849 5848 5848 5846
5845 5845 5846 5846 5847 5847 5847 5848 5848 5849 5849 5850 5850 5850 5851 5852 5852 5851 5851 5852 5852 5852 5851 5851 5851 5851 5850 5850 5850 5849 5849 5850 5850 5850 5849 5849 5849 5848 5847 5847 5846 5845
5842 5843 5843 5843 5844 5845 5845 5845 5845 5845 5845 5846 5848 5848 5849 5849 5849 5849 5849 5850 5850 5850 5850 5850 5849 5849 5849 5848 5848 5848 5848 5848 5848 5848 5848 5848 5848 5847 5846 5845 5845 5843
5839 5840 5841 5842 5843 5843 5843 5843 5842 5843 5843 5845 5846 5847 5847 5847 5847 5847 5848 5848 5848 5848 5849 5848 5848 5848 5847 5847 5847 5847 5847 5847 5847 5847 5847 5847 5846 5845 5844 5844 5843 5842
5839 5840 5841 5842 5842 5842 5842 5842 5841 5842 5843 5843 5844 5845 5845 5845 5845 5846 5846 5846 5847 5847 5847 5847 5846 5846 5846 5845 5845 5845 5846 5846 5846 5846 5845 5845 5845 5844 5843 5843 5842 5841
5839 5840 5841 5842 5842 5841 5842 5841 5841 5841 5842 5842 5843 5844 5844 5844 5844 5845 5845 5845 5846 5846 5846 5846 5845 5845 5844 5844 5844 5844 5844 5844 5844 5844 5844 5844 5843 5843 5842 5842 5841 5839
5840 5841 5842 5842 5841 5841 5841 5841 5841 5841 5841 5842 5842 5843 5843 5843 5843 5844 5844 5845 5845 5845 5845 5844 5844 5843 5843 5843 5843 5843 5843 5843 5843 5843 5843 5842 5842 5841 5841 5840 5839 5838
5841 5841 5841 5841 5841 5841 5842 5842 5841 5841 5841 5841 5841 5842 5842 5842 5842 5843 5843 5844 5844 5844 5843 5843 5842 5841 5841 5841 5841 5841 5841 5841 5841 5841 5841 5841 5841 5840 5840 5839 5838 5837
5841 5841 5841 5841 5841 5842 5842 5841 5841 5840 5840 5840 5840 5841 5841 5842 5842 5843 5843 5843 5843 5843 5842 5841 5841 5840 5840 5840 5840 5840 5840 5840 5840 5840 5840 5840 5840 5839 5838 5837 5836 5835
5841 5841 5841 5841 5841 5841 5841 5841 5840 5840 5840 5840 5840 5841 5841 5842 5842 5843 5843 5842 5842 5841 5840 5840 5840 5839 5839 5839 5839 5838 5838 5838 5839 5838 5838 5838 5838 5838 5837 5836 5835 5834
5840 5840 5841 5841 5841 5841 5841 5840 5840 5840 5839 5840 5840 5841 5841 5842 5842 5842 5842 5841 5840 5840 5839 5839 5839 5838 5838 5838 5837 5837 5836 5837 5837 5837 5837 5837 5837 5836 5835 5834 5833 5832
5840 5840 5840 5840 5840 5840 5840 5840 5840 5840 5840 5841 5841 5841 5842 5842 5841 5841 5840 5840 5839 5839 5838 5838 5837 5837 5837 5836 5836 5835 5835 5835 5836 5836 5836 5836 5835 5834 5834 5833 5832 5831
5840 5840 5840 5840 5840 5840 5841 5841 5840 5841 5841 5841 5841 5841 5841 5841 5840 5840 5839 5839 5838 5838 5837 5837 5836 5836 5835 5835 5835 5834 5834 5834 5834 5834 5835 5834 5834 5833 5832 5831 5830 5829
5841 5841 5841 5841 5841 5841 5841 5841 5841 5841 5841 5841 5841 5841 5840 5840 5839 5839 5838 5838 5837 5836 5836 5835 5835 5834 5834 5834 5834 5833 5833 5833 5833 5833 5833 5833 5833 5832 5831 5830 5829 5828
5841 5841 5842 5842 5842 5842 5841 5841 5841 5841 5841 5841 5840 5840 5839 5839 5838 5838 5837 5836 5836 5835 5835 5834 5834 5833 5833 5833 5833 5832 5832 5832 5832 5832 5832 5832 5831 5831 5830 5829 5828 5827
5842 5842 5842 5842 5842 5841 5841 5841 5841 5841 5841 5840 5840 5839 5838 5838 5837 5836 5836 5835 5835 5834 5833 5833 5832 5832 5832 5831 5831 5831 5831 5831 5830 5830 5830 5830 5830 5829 5828 5827 5826 5826
5842 5842 5842 5842 5841 5841 5841 5841 5841 5841 5840 5839 5839 5838 5837 5836 5836 5835 5834 5834 5833 5833 5832 5832 5831 5831 5830 5830 5829 5829 5829 5829 5829 5829 5829 5828 5828 5827 5827 5826 5825 5824
5842 5842 5842 5842 5842 5842 5842 5841 5841 5840 5839 5838 5837 5837 5836 5835 5834 5833 5833 5832 5832 5831 5831 5830 5830 5829 5828 5828 5828 5828 5828 5828 5828 5827 5827 5826 5826 5825 5825 5824 5823 5823
5842 5842 5842 5842 5842 5842 5841 5841 5840 5839 5838 5837 5836 5835 5835 5834 5833 5832 5832 5831 5830 5830 5829 5829 5828 5828 5827 5827 5826 5826 5826 5826 5826 5825 5825 5824 5824 5823 5823 5822 5822 5821
5842 5842 5842 5842 5842 5841 5840 5840 5839 5838 5837 5836 5835 5834 5834 5833 5832 5831 5831 5830 5829 5829 5828 5827 5827 5826 5826 5825 5825 5825 5825 5824 5824 5824 5823 5822 5822 5821 5821 5820 5820 5820
5842 5842 5842 5842 5841 5840 5840 5839 5838 5837 5836 5835 5834 5834 5833 5832 5832 5831 5830 5829 5829 5828 5827 5826 5826 5825 5825 5824 5824 5823 5823 5823 5822 5822 5821 5821 5820 5820 5819 5819 5818 5818
5842 5841 5841 5841 5840 5840 5839 5838 5838 5837 5836 5835 5834 5833 5832 5832 5831 5830 5829 5829 5828 5827 5826 5826 5825 5824 5823 5823 5822 5822 5821 5821 5821 5820 5820 5819 5819 5818 5818 5817 5817 5816
5841 5841 5840 5840 5840 5839 5839 5838 5838 5837 5836 5835 5834 5833 5832 5831 5831 5830 5829 5828 5827 5826 5825 5825 5824 5823 5822 5822 5821 5820 5820 5819 5819 5819 5818 5818 5817 5816 5816 5815 5815 5814